Regional Weather Roundup
Issued by NWS Albany, NY

Home | Current Version | Previous Version | Graphics & Text | Print | Product List | Glossary Off
Versions: 1 2 3 4 5 6 7 8 9 10 11 12 13 14 15 16 17 18 19 20 21 22 23 24 25 26 27 28 29 30 31 32 33 34 35 36 37 38 39 40 41 42 43 44 45 46 47

000
ASUS41 KALY 270610
RWRALY

NEW YORK STATE HOURLY WEATHER ROUNDUP
NATIONAL WEATHER SERVICE ALBANY NY
100 AM EST TUE JAN 27 2015

NOTE: "FAIR" INDICATES FEW OR NO CLOUDS BELOW 12,000 FEET WITH NO
SIGNIFICANT WEATHER AND/OR NO OBSTRUCTIONS TO VISIBILITY.

NYZ032-033-038>043-046>054-057>066-NYZ062>081-270700-
EAST


CITY           SKY/WX    TMP DP  RH WIND       PRES   REMARKS
ALBANY         CLOUDY    17   2  51 N12       29.88F WCI   4
GLENS FALLS    CLOUDY    15   1  53 N12       29.92F WCI   2
POUGHKEEPSIE   LGT SNOW  19  13  77 N12       29.76F WCI   7
NEWBURGH       LGT SNOW  19  16  86 NE14G21   29.74F WCI   6
MONTGOMERY     LGT SNOW  21  16  81 NE15      29.74F WCI   8
WHITE PLAINS   SNOW      23  18  81 N18G26    29.63F VSB 1/2 WCI   9
ISLIP          HVY SNOW  23  20  88 N21G36    29.61R VSB 1/4 WCI   8
NEW YORK CITY  SNOW      25  22  88 N12       29.68F VSB 1/2 WCI  14
CENTRAL PARK   HVY SNOW  24  20  84 VRB7G21   29.70F VSB 1/4 WCI  16
$$

NYZ005>009-017-018-044>046-055-056-270700-
CENTRAL


CITY           SKY/WX    TMP DP  RH WIND       PRES   REMARKS
FULTON         CLOUDY    16   6  65 N10       29.91F WCI   4
SYRACUSE       FLURRIES  13   9  84 N6        29.90F WCI   4
ROME           MOCLDY    14   2  58 N8        29.91F WCI   3
ELMIRA         LGT SNOW  19  15  84 CALM      29.83F FOG
BINGHAMTON     MOCLDY    15  11  83 NE10      29.74F WCI   2
MONTICELLO     CLOUDY    19  14  79 CALM      29.69F
$$

NYZ026>034-041>043-270700-
NORTH


CITY           SKY/WX    TMP DP  RH WIND       PRES   REMARKS
WATERTOWN      CLOUDY     8  -3  61 NE17      29.99F WCI -10
FORT DRUM      NOT AVBL
MASSENA        MOCLDY     4  -6  63 NE15      30.10F WCI -14
SARANAC LAKE   MOCLDY     2  -5  72 NE6       29.85F WCI  -9
PLATTSBURGH    MOCLDY     5  -5  63 N15       30.06F WCI -13
$$

NYZ001>004-010>016-019>021-270700-
WEST


CITY           SKY/WX    TMP DP  RH WIND       PRES   REMARKS
NIAGARA FALLS  LGT SNOW  17  12  80 NE10      29.92F WCI   5
BUFFALO        LGT SNOW  16  11  80 NE10      29.90F WCI   4
DUNKIRK        LGT SNOW  16  12  84 NE8       29.90F FOG     WCI   5
JAMESTOWN      CLOUDY    14  10  85 NE5       29.78F WCI   6
WELLSVILLE     LGT SNOW  12   9  87 N3        29.76F FOG
ROCHESTER      LGT SNOW  20  16  84 NE10      29.92F FOG     WCI   9
PENN YAN       LGT SNOW  15  12  88 N5        29.86F FOG     WCI   8
$$

             KEY
       WCI = WIND CHILL INDEX
       VSB = VISIBILITY
       HX  = HEAT INDEX
$$



USA.gov is the U.S. government's official web portal to all federal, state and local government web resources and services.